Weather in Krasnoe Pole

Russia / Chelyabinsk Oblast     55°14′06″N   61°14′37″E
temp.,
°C
wind,
m/s
gust,
m/s
humid.,
%
clouds,
%
prec.,
mm/h
press.,
hPa
HPBL,
m
14 june, mon
mon1423:00+19se23485 0.0 102253
02:00+17s2452100 0.0 102273
05:00+17s394998 0.0 1022204
08:00+20ssw5114659 0.0 1022346
11:00+25sw583218 0.0 1022929
14:00+28ssw562519 0.0 10212172
17:00+28sw462887 0.0 10202051
20:00+25ssw3642100 0.0 1020314
15 june, tue
tue1523:00+21ssw38485 0.0 1019170
02:00+18ssw49519 0.0 1018180
05:00+17sw3954100 0.0 1019162
08:00+21sw41047100 0.0 1018289
11:00+27sw583599 0.0 1017710
14:00+29sw673396 0.0 10161358
17:00+24wsw364786 0.0 1016167
20:00+25nnw115199 0.0 101527
16 june, wed
wed1623:00+21s0055100 0.0 101511
02:00+19ene226253 0.0 101534
05:00+18nne006684 0.0 101511
08:00+22nw115621 0.1 1015178
11:00+28ssw12385 0.1 1014934
14:00+30sw353310 0.0 10131828
17:00+23w685989 0.9 1013654
20:00+22wsw46737 0.8 1012188
17 june, thu
thu1723:00+18ssw368082 1.2 1012151
02:00+17sw267999 0.0 1011127
05:00+17ssw387539 0.0 1009183
08:00+21ssw5136392 0.0 1007410
11:00+26ssw5946100 0.0 1004801
14:00+28sw6942100 0.0 10031437
17:00+22w111274100 2.0 1002862
20:00+18nnw71191100 13.1 1004800
18 june, fri
fri1823:00+13nnw713756 13.1 1007857
02:00+11nnw612750 0.0 1010905
05:00+9nnw613705 0.0 1012789
08:00+11nnw713580 0.0 10141018
11:00+15n711410 0.0 10141416
14:00+18n711321 0.0 10142095
17:00+18nne610306 0.0 10142376
20:00+17nw3947100 0.0 10141478